Location: Gandikunta
(16.3784°N, 80.8378°E)
Time: 15:38:20
(UTC+00:00)

USA 234 - Pass Details

Date: 19 May 2025
Orbit: 1097 x 1111 km, 123.0° (Epoch: 13 June)

Event Time Altitude Azimuth Distance (km) Brightness Sun altitude
Rises 13:50:47 0° 34° (NE) 3,920 6.1 -11.8°
Reaches altitude 10° 13:53:16 10° 33° (NNE) 2,963 5.5 -12.3°
Maximum altitude 13:59:48 75° 309° (NW) 1,145 3.5 -13.7°
Drops below altitude 10° 14:06:20 10° 224° (SW) 2,966 5.7 -15.1°
Sets 14:08:49 0° 223° (SW) 3,924 6.4 -15.6°
